Temp
18 20 20 19 18 17 16 16 15 15 15 15 14 14 14 14 13 13 13 13 13 13 12 13 12 12 12 12 12 12 12 12 12 13 13 13 12 12 12 12 12 12 12
17 18 19 19 18 17 16 16 15 15 15 15 14 14 14 13 13 13 13 12 12 12 12 12 12 12 12 12 12 12 12 11 11 11 10 8 11 12 13 12 12 12 12
18 17 16 17 17 16 16 15 15 15 14 14 14 14 13 13 12 12 12 12 12 12 12 12 12 12 11 11 11 11 11 11 11 11 10 8 8 8 12 12 12 11 12
18 16 15 15 16 16 15 15 15 14 14 14 14 14 14 13 13 13 12 12 11 11 11 11 11 11 11 11 11 10 10 10 10 11 11 10 10 7 7 11 12 11 11
16 15 14 15 16 15 15 15 14 14 14 14 14 13 13 13 13 12 12 11 11 11 11 11 11 11 10 10 10 10 10 9 9 9 9 10 10 9 8 6 8 11 11
14 13 14 15 15 15 15 14 14 13 13 13 13 13 13 13 12 12 11 11 11 11 11 10 10 10 10 10 10 9 9 9 9 9 9 9 9 9 8 5 6 7 9
13 12 11 12 13 13 13 13 13 13 12 12 12 12 12 12 12 12 11 11 11 11 10 10 10 9 9 9 9 9 9 9 9 9 9 8 8 8 8 7 6 5 8
11 11 11 11 12 13 13 13 12 12 12 12 12 12 12 12 11 11 11 11 11 10 10 9 9 9 9 9 9 8 8 8 8 8 8 8 8 8 8 7 6 5 5
10 10 11 12 12 12 12 12 12 12 12 12 11 11 11 11 11 11 10 10 10 10 9 9 9 8 8 8 8 8 8 8 8 8 8 8 8 8 7 7 7 6 5
10 10 10 12 12 12 12 12 12 12 12 11 11 11 10 10 10 10 9 9 9 9 9 8 8 8 8 8 8 8 8 8 8 8 7 7 7 7 7 7 7 7 5
9 8 10 11 12 12 12 12 12 12 11 11 10 10 10 9 9 9 9 8 8 8 8 8 8 8 7 7 7 7 7 7 6 6 6 6 6 6 6 6 6 6 6
8 8 9 11 11 11 11 11 11 11 10 10 10 9 9 8 8 8 8 8 7 7 7 7 7 7 7 7 7 6 6 6 6 5 5 5 5 5 5 5 5 5 6
7 7 8 8 9 9 10 9 10 9 9 9 8 8 8 8 7 7 7 7 7 7 7 7 6 6 6 6 6 5 5 5 5 5 4 4 4 4 3 4 4 4 5
8 6 6 7 8 8 8 8 8 8 8 8 8 7 7 7 7 7 7 6 6 6 6 6 5 5 5 5 5 4 4 4 4 4 4 3 3 2 2 2 2 3 3
7 6 5 5 7 7 7 8 8 8 7 7 7 7 6 6 6 6 6 6 5 5 5 4 4 4 4 4 4 4 3 3 3 3 3 3 2 1 1 1 2 2 2
7 6 6 6 6 7 7 7 7 7 7 7 6 6 6 6 5 5 5 5 4 4 3 3 3 3 2 2 2 2 3 2 2 2 2 2 2 1 1 1 1 2 2
7 7 6 6 7 7 7 7 7 7 6 6 6 6 5 5 5 4 4 3 3 2 2 2 1 1 1 1 1 1 1 1 1 1 1 1 1 1 1 0 0 1 1
7 6 6 6 7 7 7 7 6 6 6 6 5 5 4 4 3 3 2 2 2 1 1 1 0 0 0 0 0 0 0 0 0 0 0 0 0 1 0 0 0 1 1
6 7 7 7 7 7 6 6 6 6 5 5 4 4 3 3 2 2 1 1 1 1 0 -0 -0 -0 -0 -1 -0 -0 -1 -1 -1 -1 -1 -1 -1 -0 -0 0 -0 -2 -1
7 6 7 7 6 6 6 6 5 5 4 4 3 3 2 1 1 1 1 0 0 -0 -1 -1 -1 -1 -1 -1 -1 -1 -1 -2 -1 -1 -1 -1 -2 -1 -1 -1 -2 -2 -2
6 6 6 6 5 5 5 5 4 4 3 3 2 2 1 1 0 0 -0 -0 -1 -1 -1 -1 -1 -1 -2 -2 -2 -2 -2 -2 -2 -2 -2 -3 -2 -2 -2 -1 -1 -2 -1
5 6 5 5 4 4 4 3 3 2 2 2 1 1 0 -0 -1 -1 -1 -1 -1 -1 -1 -1 -2 -2 -2 -2 -3 -2 -2 -2 -2 -3 -3 -3 -2 -2 -1 -1 -1 -1 -1
5 5 5 4 4 4 3 3 2 2 1 1 0 -0 -1 -1 -1 -1 -2 -2 -2 -2 -2 -2 -2 -3 -2 -2 -2 -2 -2 -2 -2 -2 -3 -2 -2 -2 -2 -2 -2 -1 -2
4 4 4 3 3 3 2 2 1 1 0 -0 -1 -2 -2 -2 -2 -2 -3 -3 -3 -3 -3 -3 -3 -3 -3 -3 -2 -2 -2 -2 -2 -2 -2 -2 -2 -2 -3 -3 -3 -3 -3
4 4 3 2 2 2 1 1 0 -0 -1 -1 -2 -2 -3 -3 -3 -3 -3 -3 -3 -3 -3 -3 -3 -3 -3 -3 -2 -1 -2 -2 -2 -1 -2 -3 -3 -4 -4 -4 -4 -3 -3
3 2 2 1 1 1 0 -0 -1 -1 -2 -2 -3 -3 -4 -4 -4 -4 -4 -4 -4 -4 -4 -3 -3 -3 -3 -3 -2 -2 -2 -3 -2 -3 -4 -4 -4 -4 -4 -4 -4 -4 -4
Height
801 804 806 808 814 817 821 826 829 833 834 836 838 841 842 844 845 846 847 847 847 847 846 846 845 844 844 843 842 841 840 838 836 834 834 834 835 835 834 833 832 831 830
800 800 804 803 810 814 819 823 827 830 833 835 837 838 840 842 843 845 846 846 847 847 847 846 845 845 844 844 843 841 840 840 838 837 836 837 836 834 832 833 832 831 830
795 796 799 799 805 812 817 821 825 829 832 834 836 837 839 840 842 844 844 845 846 846 846 846 846 845 845 845 844 843 842 841 840 839 839 839 841 836 832 832 832 831 829
790 797 798 799 804 809 815 820 824 828 831 833 835 836 836 838 839 841 843 844 845 846 846 846 846 845 845 845 844 844 843 842 841 840 840 839 839 839 837 831 830 829 828
783 791 794 798 804 809 813 819 823 827 829 831 833 835 835 837 838 841 842 843 845 845 845 845 845 845 845 845 845 844 843 843 842 841 840 839 838 837 837 835 829 827 825
786 790 795 800 805 809 813 819 823 826 828 830 832 833 835 836 839 840 842 843 844 844 845 845 845 845 845 845 844 843 843 842 841 841 840 840 839 837 836 835 830 827 823
785 792 798 803 806 809 814 819 822 825 827 829 831 833 834 836 838 839 840 841 842 843 844 844 844 844 844 844 843 842 842 841 840 839 839 838 837 836 834 832 829 826 822
790 794 798 803 805 810 815 819 822 825 827 829 831 833 834 836 837 839 840 841 842 843 843 844 844 844 843 843 843 841 840 840 839 838 837 836 835 834 832 831 829 824 820
795 798 801 802 806 810 815 819 822 825 827 829 831 833 834 835 837 838 839 841 842 843 843 843 843 843 842 842 841 840 839 838 837 836 834 833 831 830 828 827 825 822 817
797 799 801 804 808 812 816 819 822 824 826 828 830 832 834 835 837 838 839 840 841 842 842 842 842 842 841 841 839 838 837 836 834 833 831 830 829 827 825 823 821 819 815
798 801 803 806 809 812 815 818 821 823 825 828 830 832 834 835 836 838 839 840 841 841 842 842 841 840 839 838 837 836 835 833 832 830 828 826 824 822 819 817 814 812 810
801 803 805 808 810 813 816 818 821 823 826 828 830 832 834 835 837 838 840 841 841 841 841 841 840 839 838 837 835 833 832 830 828 826 824 821 820 817 815 812 808 806 804
804 806 808 810 812 814 817 819 822 824 827 829 831 833 835 837 838 839 840 840 840 840 840 839 838 837 836 834 832 831 828 826 824 822 820 817 815 811 808 805 801 798 796
805 809 811 812 814 816 819 821 824 826 828 830 832 834 836 837 838 839 839 839 839 838 837 836 835 834 833 831 828 826 823 821 820 818 816 813 809 805 802 799 796 792 789
806 809 812 814 817 819 821 823 826 828 830 832 834 835 837 837 838 838 838 837 836 835 834 833 832 830 828 825 823 820 817 815 812 811 809 807 804 800 797 794 789 786 782
805 809 812 815 817 820 822 825 827 830 832 833 835 836 837 838 838 837 836 835 834 833 831 830 828 827 824 822 819 816 813 809 806 803 801 798 795 792 790 787 783 781 776
801 806 810 814 818 821 824 826 829 831 832 834 836 836 836 836 835 834 833 832 831 830 828 827 824 822 820 818 815 812 808 804 801 797 794 791 788 785 781 779 776 772 769
800 806 811 815 819 822 825 827 829 831 833 834 835 835 834 834 833 832 831 829 828 827 824 822 821 819 816 814 811 807 803 799 795 792 789 786 782 779 776 771 767 763 759
800 805 810 815 819 822 825 827 829 831 832 833 834 834 833 832 830 830 829 826 824 822 820 819 817 814 811 809 807 803 798 793 790 787 784 781 777 774 770 765 761 757 753
798 805 810 815 819 823 825 827 829 830 831 832 832 831 831 830 829 827 825 823 822 819 816 814 813 810 807 805 801 798 794 789 785 782 779 776 773 769 764 760 756 751 747
800 805 810 815 819 823 825 827 829 830 831 831 831 830 829 827 825 823 821 819 817 814 812 809 807 806 804 800 796 793 790 786 781 778 774 771 767 763 759 755 751 746 742
803 808 812 816 820 823 824 826 828 829 829 828 828 827 826 825 823 821 819 816 813 810 807 804 802 801 799 796 793 789 785 782 779 775 771 766 762 758 754 750 746 741 737
805 809 813 817 820 822 824 826 827 827 827 826 825 823 822 821 820 818 817 814 810 806 802 800 797 794 793 791 788 783 779 777 773 771 766 762 757 753 749 745 741 737 733
807 811 814 818 820 822 824 824 825 825 824 823 823 821 818 816 816 814 812 811 809 805 800 796 793 790 788 786 782 776 773 770 767 763 759 755 752 749 745 740 735 732 729
807 811 814 818 820 822 822 823 823 822 821 821 819 817 816 813 812 810 809 808 806 803 799 795 791 787 784 781 777 773 769 765 762 758 753 749 746 742 738 734 731 728 724
807 810 813 816 818 819 820 820 819 819 818 816 815 814 811 810 809 807 804 804 801 799 796 792 788 784 780 776 772 768 764 761 758 753 750 746 742 738 734 730 726 723 720
Wind_Speed
9 20 26 26 30 30 27 23 21 19 17 16 15 13 12 10 7 4 4 2 2 3 3 3 5 4 7 9 9 8 7 12 14 4 2 5 4 3 3 3 3 7 8
9 15 26 30 31 31 28 24 22 20 17 14 12 10 13 10 7 4 4 3 2 2 2 2 4 4 4 5 7 9 6 7 13 8 2 3 2 4 3 3 3 6 8
14 12 19 27 26 31 30 26 23 19 16 14 14 13 16 11 9 7 6 4 2 2 2 1 2 2 3 5 6 7 8 7 7 10 5 2 1 5 2 2 6 6 9
15 9 14 22 26 29 29 24 21 20 17 16 15 14 13 10 9 9 7 4 3 2 1 0 1 2 3 3 4 5 6 6 7 3 6 3 2 0 4 3 9 9 14
17 14 16 24 22 24 27 23 21 19 16 14 12 13 9 8 10 10 7 6 3 2 2 2 2 2 3 4 5 5 5 5 5 5 5 4 8 6 3 4 6 20 20
9 9 17 22 20 23 25 24 21 17 14 14 12 12 11 11 10 8 7 6 4 3 3 3 3 4 5 6 6 6 6 6 6 6 6 5 3 4 4 2 6 11 19
12 11 11 17 24 23 22 20 18 17 14 13 12 10 9 8 7 7 6 7 6 5 4 4 5 6 7 7 8 8 8 8 8 9 10 9 11 11 12 11 11 6 8
8 10 13 19 22 20 19 18 17 16 14 12 10 9 8 7 7 6 5 4 3 1 2 4 6 6 7 9 9 10 10 10 11 13 13 15 16 15 16 14 13 6 5
8 9 14 19 19 18 18 17 17 15 13 11 10 8 7 7 6 4 3 2 1 2 4 6 6 7 8 10 11 12 12 12 14 15 16 17 19 20 19 19 19 14 7
7 7 11 17 18 17 16 15 14 14 12 11 9 9 7 6 5 4 4 3 1 1 3 5 6 7 9 10 11 13 14 15 17 18 20 21 23 23 23 25 25 24 22
7 7 10 14 16 16 16 15 13 14 14 12 13 11 9 7 7 8 7 5 3 4 4 6 8 8 9 10 11 13 15 16 17 18 20 22 22 23 24 27 27 27 27
7 7 12 14 15 14 14 14 14 14 13 15 15 12 11 13 12 9 7 6 6 6 6 8 9 11 12 15 17 20 20 21 22 24 25 26 26 29 30 30 31 31 31
7 7 11 13 16 18 19 20 19 19 20 19 18 17 15 11 10 9 7 7 7 8 9 11 13 15 17 19 21 22 24 25 26 26 25 27 31 35 34 35 34 34 34
8 7 7 13 19 20 21 22 22 22 21 19 17 15 12 10 8 7 6 8 9 11 14 16 18 20 21 23 26 28 28 29 30 29 31 33 35 34 33 33 32 32 32
8 8 7 11 18 21 22 22 21 19 18 17 15 12 9 7 5 6 9 11 13 16 18 20 22 23 24 27 28 29 29 30 32 33 33 34 37 35 33 31 31 30 30
9 8 8 15 19 22 22 21 20 18 15 13 11 7 5 5 7 10 13 15 16 17 18 20 22 24 25 26 25 25 28 30 32 32 32 35 36 35 31 32 32 31 29
12 11 10 17 21 21 21 19 17 14 11 9 7 5 5 7 10 12 14 16 18 19 21 22 23 24 24 22 23 25 27 29 30 32 33 33 32 34 35 34 33 33 33
10 9 17 20 19 21 19 16 13 10 8 6 4 4 7 10 12 15 17 18 18 19 20 23 23 24 23 22 22 24 25 27 27 29 30 31 34 36 32 30 32 34 36
14 20 27 25 24 20 16 14 12 9 5 3 3 6 9 13 15 17 18 18 17 22 22 21 22 21 22 22 22 23 25 24 26 26 28 27 27 30 30 33 29 27 29
23 24 27 25 20 15 13 12 9 5 2 2 7 9 11 13 14 16 16 19 19 20 21 21 20 19 21 24 22 22 23 24 25 26 25 27 25 28 29 29 26 23 24
23 28 27 23 17 13 11 9 5 3 1 6 8 10 12 14 15 17 18 18 19 19 21 21 19 17 23 25 21 21 23 22 23 21 24 24 24 26 27 27 26 25 27
22 25 24 18 13 10 8 6 3 1 4 7 10 13 14 15 16 18 17 15 18 21 22 22 21 21 24 24 21 22 21 21 23 23 21 22 24 26 26 26 27 27 26
21 22 20 16 10 6 4 2 1 4 8 10 12 13 14 15 16 13 17 20 19 22 23 23 24 23 25 27 26 23 22 22 22 22 22 25 25 25 26 26 26 26 23
18 17 15 13 10 6 2 1 3 7 10 12 13 14 15 14 14 16 17 20 19 21 22 21 18 22 23 25 28 26 26 25 24 26 26 23 24 25 24 26 25 25 24
16 15 13 10 6 2 1 3 6 9 10 11 14 15 15 16 17 17 17 15 19 18 22 21 22 22 21 22 24 27 28 23 23 28 24 23 22 22 22 22 22 23 23
15 12 9 6 3 1 4 6 7 9 11 14 16 17 17 17 18 18 18 19 16 17 20 21 22 24 23 25 25 25 21 23 25 24 20 20 20 20 21 21 21 21 21
Wind_Direction
200 189 182 176 175 172 173 177 172 177 180 172 168 166 162 164 175 186 184 175 129 127 118 89 74 61 43 35 33 45 39 27 22 44 16 236 244 289 292 275 278 321 352
188 180 175 164 170 172 175 175 177 181 182 178 173 170 170 173 188 184 185 202 172 157 110 90 71 64 50 37 34 34 36 28 26 23 17 2 286 271 290 247 348 359 340
194 180 168 164 164 173 174 174 180 182 179 180 174 155 161 155 174 197 200 198 192 164 146 117 65 45 27 23 25 26 29 20 32 40 44 26 299 325 318 213 346 325 1
182 172 155 155 162 172 174 177 180 179 181 186 192 191 185 187 200 201 198 199 215 206 180 128 6 16 3 358 3 7 15 13 18 353 15 350 291 194 326 275 334 327 334
171 168 159 161 165 164 169 173 174 178 187 191 188 176 174 177 167 176 189 204 207 239 256 278 311 327 326 333 339 347 353 355 349 359 348 338 319 259 220 278 299 311 319
146 130 147 159 157 159 160 163 170 178 183 183 184 189 184 167 174 183 190 197 223 245 276 298 306 318 319 324 325 326 324 324 320 318 316 311 305 296 290 276 294 299 315
124 124 128 139 150 150 158 167 174 174 182 182 183 180 176 180 182 187 195 206 211 244 272 290 310 308 311 316 316 314 314 314 309 307 304 296 293 294 295 288 280 260 298
121 130 139 148 155 159 162 169 175 176 179 177 169 166 169 174 174 179 185 190 218 240 236 292 305 311 313 316 315 313 312 309 303 301 301 301 298 295 292 285 292 294 261
132 138 147 154 159 165 171 177 179 177 174 166 163 165 165 165 168 166 172 166 188 285 299 313 315 318 317 317 315 313 313 311 305 302 301 297 298 296 292 288 286 275 289
132 132 143 157 164 168 172 174 174 169 161 161 166 163 154 146 141 132 112 104 76 -0 332 330 326 321 318 317 314 311 311 306 307 306 301 300 300 298 294 291 286 278 268
125 117 118 137 151 154 152 148 153 157 154 152 143 138 130 125 115 107 97 83 57 44 18 351 338 331 328 324 316 310 309 310 308 305 306 304 302 295 291 291 286 278 273
127 121 122 126 133 138 143 146 149 140 139 135 128 117 114 111 104 89 72 54 45 27 8 351 340 332 325 319 314 313 311 309 310 309 307 304 304 300 297 292 286 282 281
121 115 115 118 123 126 125 123 123 121 122 120 115 109 102 96 87 78 62 38 16 4 351 340 335 329 323 317 313 309 306 306 305 304 303 304 302 299 295 292 292 289 284
134 129 123 128 127 124 120 114 111 116 118 117 112 104 98 91 78 56 31 9 352 343 339 335 329 324 318 316 315 315 313 311 307 305 304 308 308 302 298 294 290 288 284
147 145 135 128 124 119 117 117 118 119 120 114 109 102 91 78 52 18 357 346 341 337 333 327 323 322 320 318 314 310 305 305 305 303 301 302 303 300 295 292 289 288 283
149 144 137 135 133 132 127 123 122 121 119 112 106 99 75 36 7 352 343 339 334 332 329 328 328 327 327 325 321 315 311 309 307 305 303 301 300 299 299 300 296 292 290
158 154 150 145 143 139 136 129 127 129 125 116 103 74 24 359 347 339 335 334 335 333 331 330 331 332 332 329 323 320 317 312 308 306 305 298 294 293 295 302 297 292 289
148 137 138 141 142 142 138 138 140 133 120 108 87 22 351 340 336 336 335 332 330 330 331 331 331 329 330 328 327 324 323 322 316 314 315 309 302 300 296 298 294 289 289
142 145 146 139 137 140 142 139 136 131 124 101 10 343 340 338 336 331 328 329 328 326 327 329 329 329 328 328 327 328 328 325 320 319 314 312 304 299 296 298 300 298 295
143 142 144 141 141 140 143 139 136 132 120 345 342 338 333 329 326 326 326 324 323 321 322 322 325 328 325 327 329 329 328 321 318 315 314 309 308 309 305 304 306 299 293
132 141 144 143 142 145 145 131 126 110 13 326 322 326 329 329 327 321 319 320 321 318 318 319 324 324 326 326 325 326 326 322 318 317 314 312 312 312 312 310 306 298 304
126 138 138 137 141 142 142 132 132 280 311 320 326 330 329 326 323 320 318 319 320 318 319 319 320 321 323 325 318 322 323 322 318 313 312 312 314 314 315 315 310 309 310
135 142 142 140 139 138 138 138 284 306 316 322 325 327 326 325 325 325 322 322 325 322 319 319 316 313 319 321 321 320 319 313 312 307 307 309 310 313 314 312 311 312 308
133 142 143 146 144 152 168 317 313 314 318 319 319 324 326 327 321 322 324 321 321 321 318 313 307 306 307 310 319 320 318 314 314 315 311 309 311 313 313 314 318 315 310
139 146 148 149 150 164 303 317 313 311 312 313 320 324 324 323 323 321 320 314 317 314 312 313 312 308 305 308 309 314 318 313 313 315 318 318 316 311 309 308 308 312 312
145 141 140 143 146 294 309 313 313 314 315 317 320 323 320 319 316 315 317 316 311 307 308 309 308 309 308 313 311 314 321 322 323 325 320 313 310 306 305 303 304 305 303